WXM80 ListenWXM80 Stop

You find our weather info also at:

UK Metoffice

WeatherCloud

Weather Underground

Northeastern Weather Network

AWEKAS

Citizen Weather Observer Program (CWOP)

HAMweather, WeatherForYou, PWS Weather


Weather Underground History page Text

Daily Summary for July 25, 2017 Units:  English    Metric   Both
« Previous Day
Next Day »
Daily Weekly Monthly Yearly Custom
  High: Low: Average:
Temperature: 71.7 °F 62.4 °F 65.7 °F
Dew Point: 63.6 °F 59.7 °F 61 °F
Humidity: 91 % 73 % 85 %
Wind Speed: 4.4 mph 0.0 mph 0.6 mph
Wind Gust: 8.1 mph - -
Wind:- - ENE
Pressure: 30.18 in 29.92 in -
Precipitation: 0.07 in    
Historical Graphs
 
 
Tabular Data for July 25, 2017
Time Temperature Dew Point Pressure Wind Wind Speed Wind Gust Humidity Rainfall Rate (Hourly)
00:00 63.3 °F 59.7 °F 29.92 in ENE 3.6 mph 4.6 mph 88 % 0.00 in
00:05 63.3 °F 59.7 °F 29.92 in East 2.3 mph 8.1 mph 88 % 0.00 in
00:10 63.4 °F 60.1 °F 29.92 in ENE 1.2 mph 3.5 mph 89 % 0.00 in
00:15 63.4 °F 59.8 °F 29.92 in ENE 2.4 mph 6.9 mph 88 % 0.01 in
00:20 63.3 °F 60.0 °F 29.92 in ENE 3.3 mph 6.9 mph 89 % 0.01 in
00:25 63.3 °F 59.7 °F 29.92 in ENE 1.8 mph 3.5 mph 88 % 0.01 in
00:30 63.3 °F 60.0 °F 29.92 in ENE 1.0 mph 2.3 mph 89 % 0.01 in
00:35 63.3 °F 60.0 °F 29.92 in ENE 0.5 mph 3.5 mph 89 % 0.01 in
00:40 63.3 °F 60.0 °F 29.92 in ENE 0.6 mph 2.3 mph 89 % 0.01 in
00:45 63.4 °F 60.1 °F 29.92 in ENE 1.2 mph 2.3 mph 89 % 0.01 in
00:50 63.4 °F 60.1 °F 29.92 in ENE 1.3 mph 3.5 mph 89 % 0.01 in
00:55 63.3 °F 60.0 °F 29.92 in NE 1.3 mph 3.5 mph 89 % 0.01 in
01:00 63.4 °F 60.1 °F 29.93 in ENE 0.8 mph 2.3 mph 89 % 0.01 in
01:05 63.4 °F 60.4 °F 29.93 in ENE 0.5 mph 2.3 mph 90 % 0.01 in
01:10 63.4 °F 60.4 °F 29.93 in ENE 0.7 mph 2.3 mph 90 % 0.01 in
01:15 63.4 °F 60.1 °F 29.93 in ENE 0.6 mph 3.5 mph 89 % 0.00 in
01:21 63.3 °F 60.0 °F 29.93 in ENE 1.0 mph 2.0 mph 89 % 0.00 in
01:26 63.3 °F 60.0 °F 29.92 in ENE 3.0 mph 5.0 mph 89 % 0.00 in
01:31 63.3 °F 60.0 °F 29.93 in ENE 1.0 mph 3.0 mph 89 % 0.00 in
01:36 63.3 °F 60.0 °F 29.94 in ENE 1.0 mph 2.0 mph 89 % 0.00 in
01:41 63.3 °F 60.0 °F 29.94 in East 1.0 mph 3.0 mph 89 % 0.01 in
01:46 63.2 °F 59.9 °F 29.94 in ENE 0.5 mph 2.3 mph 89 % 0.01 in
01:51 63.2 °F 60.2 °F 29.94 in ENE 0.7 mph 2.3 mph 90 % 0.01 in
01:56 63.2 °F 60.2 °F 29.94 in ENE 0.1 mph 1.2 mph 90 % 0.01 in
02:01 63.2 °F 60.2 °F 29.95 in ENE 0.4 mph 1.2 mph 90 % 0.01 in
02:06 63.2 °F 60.2 °F 29.95 in ENE 0.3 mph 1.2 mph 90 % 0.01 in
02:11 63.2 °F 60.2 °F 29.95 in ESE 0.6 mph 2.0 mph 90 % 0.01 in
02:16 63.1 °F 59.8 °F 29.94 in East 0.7 mph 2.3 mph 89 % 0.01 in
02:21 63.1 °F 60.1 °F 29.94 in East 0.2 mph 2.3 mph 90 % 0.01 in
02:26 63.0 °F 60.0 °F 29.94 in East 0.4 mph 1.2 mph 90 % 0.01 in
02:31 62.9 °F 59.9 °F 29.93 in East 1.6 mph 3.5 mph 90 % 0.01 in
02:36 62.8 °F 60.1 °F 29.94 in East 0.3 mph 1.2 mph 91 % 0.01 in
02:41 62.7 °F 60.0 °F 29.94 in East 0.3 mph 1.2 mph 91 % 0.00 in
02:46 62.7 °F 60.0 °F 29.94 in East 0.4 mph 2.3 mph 91 % 0.00 in
02:51 62.6 °F 59.9 °F 29.94 in Calm     91 % 0.00 in
02:56 62.6 °F 59.9 °F 29.94 in East 0.4 mph 1.2 mph 91 % 0.00 in
03:01 62.5 °F 59.8 °F 29.94 in East 0.1 mph 1.2 mph 91 % 0.00 in
03:06 62.5 °F 59.8 °F 29.94 in East 0.2 mph 1.2 mph 91 % 0.00 in
03:11 62.5 °F 59.8 °F 29.94 in Calm   1.2 mph 91 % 0.00 in
03:16 62.5 °F 59.8 °F 29.94 in Calm   1.2 mph 91 % 0.00 in
03:21 62.5 °F 59.8 °F 29.95 in Calm     91 % 0.00 in
03:26 62.5 °F 59.8 °F 29.94 in East 0.2 mph 1.2 mph 91 % 0.01 in
03:31 62.5 °F 59.8 °F 29.94 in Calm     91 % 0.01 in
03:36 62.5 °F 59.8 °F 29.93 in East 0.1 mph 1.2 mph 91 % 0.01 in
03:42 62.5 °F 59.8 °F 29.93 in East 0.1 mph 1.2 mph 91 % 0.01 in
03:52 62.4 °F 59.7 °F 29.94 in ENE 0.2 mph 1.2 mph 91 % 0.01 in
03:57 62.5 °F 59.8 °F 29.94 in East 0.3 mph 2.3 mph 91 % 0.01 in
04:02 62.5 °F 59.8 °F 29.94 in Calm     91 % 0.01 in
04:07 62.5 °F 59.8 °F 29.94 in East 0.1 mph 1.2 mph 91 % 0.01 in
04:12 62.5 °F 59.8 °F 29.94 in Calm     91 % 0.01 in
04:17 62.5 °F 59.8 °F 29.94 in Calm   1.2 mph 91 % 0.01 in
04:22 62.5 °F 59.8 °F 29.94 in East 0.4 mph 1.2 mph 91 % 0.01 in
04:27 62.4 °F 59.7 °F 29.94 in East 0.2 mph 2.0 mph 91 % 0.00 in
04:32 62.4 °F 59.7 °F 29.94 in Calm   1.2 mph 91 % 0.00 in
04:37 62.4 °F 59.7 °F 29.94 in East 0.2 mph 1.2 mph 91 % 0.00 in
04:42 62.4 °F 59.7 °F 29.94 in Calm     91 % 0.00 in
04:47 62.4 °F 59.7 °F 29.94 in Calm     91 % 0.00 in
04:52 62.5 °F 59.8 °F 29.95 in East 0.1 mph 1.2 mph 91 % 0.00 in
04:57 62.5 °F 59.8 °F 29.95 in Calm   1.2 mph 91 % 0.00 in
05:02 62.5 °F 59.8 °F 29.95 in Calm   1.2 mph 91 % 0.00 in
05:07 62.5 °F 59.8 °F 29.95 in Calm   1.2 mph 91 % 0.00 in
05:12 62.5 °F 59.8 °F 29.95 in Calm   1.2 mph 91 % 0.00 in
05:17 62.5 °F 59.8 °F 29.96 in Calm   1.0 mph 91 % 0.00 in
05:22 62.5 °F 59.8 °F 29.96 in Calm     91 % 0.00 in
05:28 62.5 °F 59.8 °F 29.96 in Calm     91 % 0.01 in
05:33 62.5 °F 59.8 °F 29.96 in Calm     91 % 0.01 in
05:38 62.5 °F 59.8 °F 29.96 in Calm   1.2 mph 91 % 0.01 in
05:43 62.5 °F 59.8 °F 29.97 in Calm     91 % 0.01 in
05:48 62.5 °F 59.8 °F 29.97 in Calm     91 % 0.01 in
05:53 62.6 °F 59.9 °F 29.97 in East 0.1 mph 1.2 mph 91 % 0.01 in
05:58 62.6 °F 59.9 °F 29.96 in Calm     91 % 0.01 in
06:03 62.6 °F 59.9 °F 29.97 in Calm     91 % 0.01 in
06:08 62.7 °F 60.0 °F 29.97 in Calm   1.2 mph 91 % 0.01 in
06:13 62.7 °F 60.0 °F 29.97 in Calm     91 % 0.01 in
06:18 62.7 °F 60.0 °F 29.97 in East 0.1 mph 1.2 mph 91 % 0.01 in
06:23 62.8 °F 60.1 °F 29.97 in Calm     91 % 0.01 in
06:28 62.8 °F 60.1 °F 29.97 in Calm     91 % 0.00 in
06:33 62.9 °F 60.2 °F 29.97 in Calm     91 % 0.00 in
06:38 62.9 °F 60.2 °F 29.97 in Calm     91 % 0.00 in
06:43 63.0 °F 60.3 °F 29.97 in East 0.2 mph 1.2 mph 91 % 0.00 in
06:48 63.1 °F 60.4 °F 29.97 in East 0.2 mph 1.2 mph 91 % 0.00 in
06:53 63.2 °F 60.5 °F 29.97 in East 0.6 mph 1.2 mph 91 % 0.00 in
06:58 63.2 °F 60.5 °F 29.98 in East 0.3 mph 1.2 mph 91 % 0.00 in
07:03 63.3 °F 60.3 °F 29.98 in NE 0.2 mph 2.3 mph 90 % 0.00 in
07:08 63.3 °F 60.3 °F 29.99 in ENE 0.1 mph 3.5 mph 90 % 0.00 in
07:13 63.4 °F 60.4 °F 29.99 in Calm   1.2 mph 90 % 0.00 in
07:18 63.4 °F 60.4 °F 29.99 in Calm     90 % 0.00 in
07:23 63.4 °F 60.4 °F 29.99 in Calm     90 % 0.00 in
07:28 63.4 °F 60.4 °F 30.00 in ENE 0.3 mph 2.3 mph 90 % 0.00 in
07:33 63.4 °F 60.4 °F 30.00 in NE 0.3 mph 1.2 mph 90 % 0.00 in
07:38 63.4 °F 60.4 °F 30.00 in ENE 1.8 mph 2.3 mph 90 % 0.00 in
07:43 63.5 °F 60.5 °F 30.00 in NE 0.7 mph 2.3 mph 90 % 0.00 in
07:48 63.4 °F 60.4 °F 30.00 in East 1.5 mph 3.5 mph 90 % 0.01 in
07:53 63.4 °F 60.4 °F 30.00 in NE 4.3 mph 4.6 mph 90 % 0.01 in
07:59 63.4 °F 60.4 °F 30.00 in NNE 1.5 mph 4.6 mph 90 % 0.01 in
08:04 63.4 °F 60.4 °F 30.00 in NE 3.9 mph 5.8 mph 90 % 0.01 in
08:09 63.2 °F 60.2 °F 30.00 in NE 3.6 mph 6.9 mph 90 % 0.01 in
08:14 63.2 °F 60.2 °F 30.01 in ENE 4.2 mph 8.1 mph 90 % 0.01 in
08:19 63.2 °F 60.2 °F 30.00 in NE 2.8 mph 4.0 mph 90 % 0.01 in
08:24 63.1 °F 60.1 °F 30.00 in East 0.6 mph 2.3 mph 90 % 0.01 in
08:29 63.2 °F 60.2 °F 30.01 in ENE 2.0 mph 3.5 mph 90 % 0.01 in
08:34 63.2 °F 60.2 °F 30.01 in ENE 0.1 mph 1.2 mph 90 % 0.01 in
08:39 63.3 °F 60.6 °F 30.01 in ENE 0.3 mph 1.2 mph 91 % 0.01 in
08:44 63.4 °F 60.4 °F 30.01 in NE 1.9 mph 3.5 mph 90 % 0.00 in
08:49 63.4 °F 60.4 °F 30.01 in NE 1.4 mph 5.8 mph 90 % 0.00 in
08:54 63.4 °F 60.4 °F 30.02 in ENE 1.5 mph 5.0 mph 90 % 0.00 in
08:59 63.4 °F 60.4 °F 30.02 in ENE 0.6 mph 1.2 mph 90 % 0.00 in
09:04 63.4 °F 60.1 °F 30.02 in ENE 1.9 mph 3.5 mph 89 % 0.00 in
09:09 63.5 °F 60.2 °F 30.02 in ENE 2.2 mph 3.5 mph 89 % 0.00 in
09:14 63.5 °F 60.2 °F 30.02 in ENE 2.2 mph 4.6 mph 89 % 0.00 in
09:19 63.5 °F 60.2 °F 30.02 in NE 4.4 mph 7.0 mph 89 % 0.00 in
09:25 63.4 °F 59.8 °F 30.02 in NE 2.8 mph 3.5 mph 88 % 0.00 in
09:29 63.4 °F 60.1 °F 30.02 in ENE 1.0 mph 2.3 mph 89 % 0.00 in
09:35 63.5 °F 60.2 °F 30.02 in ENE 0.7 mph 3.0 mph 89 % 0.00 in
09:40 63.5 °F 60.2 °F 30.02 in NE 0.7 mph 3.5 mph 89 % 0.00 in
09:45 63.5 °F 60.2 °F 30.03 in ENE 2.3 mph 3.5 mph 89 % 0.00 in
09:50 63.5 °F 60.2 °F 30.03 in ENE 1.0 mph 3.5 mph 89 % 0.00 in
09:55 63.6 °F 60.3 °F 30.03 in ENE 0.4 mph 2.0 mph 89 % 0.00 in
10:00 63.6 °F 60.3 °F 30.03 in ENE 1.5 mph 3.5 mph 89 % 0.00 in
10:05 63.5 °F 60.2 °F 30.04 in NE 2.6 mph 3.5 mph 89 % 0.00 in
10:10 63.5 °F 59.9 °F 30.04 in ENE 1.0 mph 2.3 mph 88 % 0.00 in
10:15 63.5 °F 59.9 °F 30.04 in ENE 0.3 mph 1.2 mph 88 % 0.00 in
10:20 63.5 °F 60.2 °F 30.03 in ENE 0.1 mph   89 % 0.00 in
10:25 63.6 °F 60.3 °F 30.04 in Calm   1.2 mph 89 % 0.01 in
10:30 63.7 °F 60.4 °F 30.04 in ENE 0.3 mph 2.3 mph 89 % 0.01 in
10:32 63.7 °F 60.4 °F 30.04 in ENE 0.6 mph 2.3 mph 89 % 0.01 in
10:36 63.8 °F 60.5 °F 30.04 in ENE 0.5 mph 1.2 mph 89 % 0.01 in
10:42 63.9 °F 60.6 °F 30.04 in NE 0.3 mph 5.0 mph 89 % 0.01 in
10:46 64.0 °F 60.7 °F 30.04 in NE 2.0 mph 3.0 mph 89 % 0.01 in
10:52 64.0 °F 60.4 °F 30.04 in ENE 0.4 mph 1.2 mph 88 % 0.01 in
10:57 64.0 °F 60.4 °F 30.05 in ENE 0.3 mph 1.2 mph 88 % 0.01 in
11:02 64.1 °F 60.5 °F 30.05 in Calm   1.2 mph 88 % 0.01 in
11:07 64.3 °F 60.7 °F 30.05 in ENE 0.2 mph 1.2 mph 88 % 0.01 in
11:12 64.3 °F 60.7 °F 30.05 in ENE 0.2 mph 1.2 mph 88 % 0.01 in
11:17 64.3 °F 60.3 °F 30.06 in ENE 4.2 mph 8.1 mph 87 % 0.01 in
11:22 64.3 °F 60.7 °F 30.06 in NE 1.0 mph 2.3 mph 88 % 0.01 in
11:27 64.4 °F 60.8 °F 30.06 in NE 0.5 mph 1.2 mph 88 % 0.00 in
11:32 64.5 °F 60.9 °F 30.06 in NE 0.2 mph 1.2 mph 88 % 0.00 in
11:37 64.6 °F 61.0 °F 30.06 in NE 0.1 mph 1.2 mph 88 % 0.00 in
11:42 64.8 °F 61.2 °F 30.06 in NE 0.5 mph 2.0 mph 88 % 0.00 in
11:47 65.0 °F 60.7 °F 30.06 in NE 0.4 mph 2.3 mph 86 % 0.00 in
11:52 65.1 °F 61.1 °F 30.07 in NE 0.1 mph 2.3 mph 87 % 0.00 in
11:57 65.3 °F 61.0 °F 30.07 in NE 0.1 mph 1.2 mph 86 % 0.00 in
12:02 65.4 °F 61.1 °F 30.07 in NE 0.1 mph 1.2 mph 86 % 0.00 in
12:07 65.5 °F 61.2 °F 30.07 in NE 0.7 mph 2.3 mph 86 % 0.00 in
12:10 65.6 °F 61.3 °F 30.07 in ENE 0.3 mph 1.2 mph 86 % 0.00 in
12:15 65.7 °F 61.1 °F 30.07 in ENE 0.2 mph 1.2 mph 85 % 0.00 in
12:20 65.8 °F 61.5 °F 30.07 in Calm     86 % 0.00 in
12:25 65.9 °F 60.9 °F 30.07 in ENE 2.1 mph 3.5 mph 84 % 0.00 in
12:30 66.0 °F 61.4 °F 30.07 in ENE 0.4 mph 2.0 mph 85 % 0.00 in
12:35 66.2 °F 61.2 °F 30.07 in NE 0.4 mph 3.5 mph 84 % 0.00 in
12:40 66.3 °F 61.3 °F 30.07 in NE 2.4 mph 3.5 mph 84 % 0.00 in
12:45 66.6 °F 61.3 °F 30.07 in NW 0.5 mph 1.2 mph 83 % 0.00 in
12:50 66.8 °F 61.5 °F 30.07 in NE 0.2 mph 3.5 mph 83 % 0.00 in
12:55 67.0 °F 61.7 °F 30.07 in NE 2.4 mph 3.5 mph 83 % 0.00 in
13:00 67.2 °F 61.5 °F 30.07 in NE 0.1 mph 3.5 mph 82 % 0.00 in
13:05 67.4 °F 61.4 °F 30.07 in NE 1.9 mph 4.6 mph 81 % 0.00 in
13:10 67.6 °F 61.9 °F 30.07 in ENE 0.4 mph 2.3 mph 82 % 0.00 in
13:12 67.7 °F 61.7 °F 30.07 in ENE 0.2 mph 3.5 mph 81 % 0.00 in
13:17 68.1 °F 62.4 °F 30.07 in NE 0.5 mph 3.5 mph 82 % 0.00 in
13:22 68.7 °F 62.6 °F 30.07 in ENE 0.6 mph 2.0 mph 81 % 0.00 in
13:27 69.0 °F 62.6 °F 30.07 in NE 0.7 mph 3.5 mph 80 % 0.00 in
13:32 69.1 °F 62.3 °F 30.07 in NE 1.0 mph 1.2 mph 79 % 0.00 in
13:37 69.2 °F 62.0 °F 30.07 in NE 1.5 mph 3.5 mph 78 % 0.00 in
13:42 69.2 °F 61.7 °F 30.07 in NE 0.9 mph 2.3 mph 77 % 0.00 in
13:47 69.3 °F 61.8 °F 30.08 in ENE 1.5 mph 3.0 mph 77 % 0.00 in
13:52 69.3 °F 62.1 °F 30.08 in ENE 0.1 mph 2.3 mph 78 % 0.00 in
13:57 69.6 °F 62.8 °F 30.08 in NNE 0.1 mph 1.2 mph 79 % 0.00 in
14:02 70.1 °F 62.6 °F 30.08 in NE 1.9 mph 3.5 mph 77 % 0.00 in
14:04 70.2 °F 62.3 °F 30.08 in ENE 1.0 mph 3.5 mph 76 % 0.00 in
14:09 70.4 °F 62.1 °F 30.08 in NE 0.9 mph 3.5 mph 75 % 0.00 in
14:14 70.6 °F 62.7 °F 30.08 in NE 0.8 mph 3.5 mph 76 % 0.00 in
14:19 70.9 °F 63.3 °F 30.08 in NE 0.2 mph 3.5 mph 77 % 0.00 in
14:24 71.0 °F 62.3 °F 30.08 in NE 0.5 mph 3.5 mph 74 % 0.00 in
14:29 71.0 °F 63.4 °F 30.08 in Calm   1.2 mph 77 % 0.00 in
14:34 71.2 °F 63.6 °F 30.08 in NE 0.1 mph 1.2 mph 77 % 0.01 in
14:39 71.5 °F 63.5 °F 30.08 in NE 0.2 mph 1.2 mph 76 % 0.01 in
14:44 71.7 °F 63.4 °F 30.08 in NE 0.5 mph 3.5 mph 75 % 0.01 in
14:49 71.6 °F 62.5 °F 30.09 in ENE 0.5 mph 2.0 mph 73 % 0.01 in
14:54 71.4 °F 62.3 °F 30.09 in NE 1.9 mph 3.5 mph 73 % 0.01 in
14:59 71.3 °F 63.3 °F 30.09 in ENE 0.7 mph 3.0 mph 76 % 0.01 in
15:04 70.9 °F 62.2 °F 30.09 in NNE 0.9 mph 3.5 mph 74 % 0.01 in
15:09 70.5 °F 61.8 °F 30.09 in NNE 0.2 mph 2.3 mph 74 % 0.01 in
15:14 70.5 °F 62.9 °F 30.09 in Calm     77 % 0.01 in
15:19 70.4 °F 62.8 °F 30.09 in NE 1.1 mph 3.0 mph 77 % 0.01 in
15:24 70.4 °F 63.2 °F 30.09 in Calm     78 % 0.01 in
15:29 70.4 °F 62.1 °F 30.09 in Calm   1.2 mph 75 % 0.01 in
15:34 70.4 °F 62.8 °F 30.09 in Calm     77 % 0.00 in
15:39 70.4 °F 62.5 °F 30.09 in ENE 1.2 mph 3.5 mph 76 % 0.00 in
15:44 70.4 °F 62.1 °F 30.09 in NE 0.6 mph 1.2 mph 75 % 0.00 in
15:49 70.3 °F 62.0 °F 30.09 in Calm   2.3 mph 75 % 0.00 in
15:54 70.3 °F 62.4 °F 30.09 in Calm     76 % 0.00 in
15:59 70.4 °F 62.8 °F 30.09 in Calm   1.2 mph 77 % 0.00 in
16:04 70.3 °F 62.0 °F 30.09 in Calm   3.5 mph 75 % 0.00 in
16:09 70.3 °F 62.7 °F 30.09 in NE 0.1 mph 2.3 mph 77 % 0.00 in
16:14 70.3 °F 62.4 °F 30.10 in Calm     76 % 0.00 in
16:19 70.3 °F 62.7 °F 30.10 in Calm   1.2 mph 77 % 0.00 in
16:24 70.3 °F 62.4 °F 30.10 in ENE 1.5 mph 2.3 mph 76 % 0.00 in
16:29 70.2 °F 62.6 °F 30.10 in Calm     77 % 0.00 in
16:34 70.3 °F 63.1 °F 30.10 in Calm   1.2 mph 78 % 0.00 in
16:39 70.2 °F 62.6 °F 30.10 in Calm     77 % 0.00 in
16:45 70.2 °F 62.6 °F 30.10 in NE 0.9 mph 2.3 mph 77 % 0.00 in
16:50 70.1 °F 62.2 °F 30.10 in Calm   1.2 mph 76 % 0.00 in
16:55 70.2 °F 62.6 °F 30.10 in ENE 1.6 mph 3.5 mph 77 % 0.00 in
17:00 70.2 °F 62.3 °F 30.10 in NE 0.5 mph 2.3 mph 76 % 0.00 in
17:05 70.1 °F 61.8 °F 30.10 in ENE 0.5 mph 2.3 mph 75 % 0.00 in
17:10 70.0 °F 62.1 °F 30.10 in Calm   1.0 mph 76 % 0.00 in
17:15 69.8 °F 61.9 °F 30.10 in Calm   1.2 mph 76 % 0.00 in
17:20 69.7 °F 61.8 °F 30.10 in Calm     76 % 0.00 in
17:25 69.5 °F 62.3 °F 30.10 in Calm     78 % 0.00 in
17:30 69.4 °F 61.9 °F 30.10 in Calm   1.2 mph 77 % 0.00 in
17:35 69.2 °F 62.0 °F 30.10 in Calm     78 % 0.00 in
17:40 69.1 °F 61.9 °F 30.10 in Calm   1.0 mph 78 % 0.00 in
17:45 69.0 °F 61.9 °F 30.10 in Calm     78 % 0.00 in
17:50 68.9 °F 62.1 °F 30.10 in Calm     79 % 0.00 in
17:55 68.8 °F 61.7 °F 30.10 in Calm     78 % 0.00 in
18:00 68.7 °F 61.9 °F 30.10 in Calm   1.2 mph 79 % 0.00 in
18:05 68.6 °F 61.8 °F 30.10 in ENE 0.9 mph 1.0 mph 79 % 0.00 in
18:10 68.5 °F 62.1 °F 30.10 in ENE 0.2 mph 1.2 mph 80 % 0.00 in
18:15 68.4 °F 61.3 °F 30.11 in Calm   1.2 mph 78 % 0.00 in
18:17 68.4 °F 61.3 °F 30.11 in ENE 0.1 mph 1.2 mph 78 % 0.00 in
18:22 68.3 °F 61.9 °F 30.11 in Calm   1.2 mph 80 % 0.00 in
18:27 68.2 °F 61.4 °F 30.11 in Calm     79 % 0.00 in
18:32 68.2 °F 61.8 °F 30.11 in Calm     80 % 0.00 in
18:37 68.2 °F 61.8 °F 30.11 in Calm   1.2 mph 80 % 0.00 in
18:42 68.1 °F 61.3 °F 30.11 in Calm   1.2 mph 79 % 0.00 in
18:47 68.1 °F 61.7 °F 30.11 in NNE 0.4 mph 2.0 mph 80 % 0.00 in
18:52 68.1 °F 61.7 °F 30.11 in NNE 1.2 mph 2.0 mph 80 % 0.00 in
18:57 68.1 °F 61.7 °F 30.12 in Calm   1.2 mph 80 % 0.00 in
19:02 68.1 °F 62.0 °F 30.12 in NNE 0.4 mph 2.3 mph 81 % 0.00 in
19:05 68.1 °F 61.7 °F 30.12 in NNE 0.1 mph 2.0 mph 80 % 0.00 in
19:10 68.0 °F 61.9 °F 30.12 in NNE 0.1 mph 1.2 mph 81 % 0.00 in
19:15 68.0 °F 61.6 °F 30.12 in NNE 1.2 mph 3.5 mph 80 % 0.00 in
19:20 67.9 °F 61.5 °F 30.12 in NNE 1.5 mph 3.5 mph 80 % 0.00 in
19:25 67.9 °F 61.9 °F 30.12 in North 2.2 mph 3.5 mph 81 % 0.00 in
19:30 67.8 °F 61.4 °F 30.13 in Calm     80 % 0.00 in
19:35 67.7 °F 61.3 °F 30.13 in Calm     80 % 0.00 in
19:41 67.7 °F 61.7 °F 30.13 in Calm   2.0 mph 81 % 0.00 in
19:46 67.6 °F 61.2 °F 30.13 in WNW 1.0 mph 3.0 mph 80 % 0.00 in
19:51 67.5 °F 61.5 °F 30.13 in Calm   3.0 mph 81 % 0.00 in
19:56 67.4 °F 61.4 °F 30.13 in Calm   2.0 mph 81 % 0.00 in
20:01 67.3 °F 61.3 °F 30.14 in Calm     81 % 0.00 in
20:06 67.3 °F 61.3 °F 30.14 in Calm     81 % 0.00 in
20:11 67.2 °F 61.5 °F 30.14 in Calm   2.3 mph 82 % 0.00 in
20:16 67.1 °F 61.4 °F 30.13 in WNW 1.0 mph 2.3 mph 82 % 0.00 in
20:21 67.0 °F 61.3 °F 30.13 in Calm   1.2 mph 82 % 0.00 in
20:26 66.9 °F 61.2 °F 30.13 in Calm   1.2 mph 82 % 0.00 in
20:31 66.8 °F 61.1 °F 30.14 in WNW 0.2 mph 1.2 mph 82 % 0.00 in
20:36 66.8 °F 61.5 °F 30.14 in WNW 0.3 mph 1.2 mph 83 % 0.00 in
20:41 66.7 °F 61.4 °F 30.14 in Calm     83 % 0.00 in
20:46 66.7 °F 61.4 °F 30.14 in Calm     83 % 0.00 in
20:51 66.6 °F 61.3 °F 30.14 in WNW 0.3 mph 1.2 mph 83 % 0.00 in
20:56 66.6 °F 61.3 °F 30.14 in Calm   1.2 mph 83 % 0.00 in
21:01 66.5 °F 61.2 °F 30.14 in Calm     83 % 0.00 in
21:06 66.5 °F 61.2 °F 30.15 in Calm     83 % 0.00 in
21:11 66.5 °F 61.5 °F 30.15 in North 2.3 mph 3.5 mph 84 % 0.00 in
21:17 66.5 °F 61.5 °F 30.15 in North 0.7 mph 2.0 mph 84 % 0.00 in
21:22 66.4 °F 61.1 °F 30.15 in NNE 2.1 mph 4.6 mph 83 % 0.00 in
21:27 66.4 °F 61.1 °F 30.15 in NNE 1.1 mph 4.6 mph 83 % 0.00 in
21:32 66.5 °F 61.8 °F 30.15 in Calm     85 % 0.00 in
21:37 66.6 °F 62.3 °F 30.16 in Calm   1.2 mph 86 % 0.00 in
21:42 66.6 °F 61.9 °F 30.16 in NNE 0.1 mph 1.2 mph 85 % 0.00 in
21:47 66.6 °F 61.9 °F 30.16 in NNE 0.2 mph 1.2 mph 85 % 0.00 in
21:52 66.6 °F 61.9 °F 30.16 in Calm   1.2 mph 85 % 0.00 in
21:57 66.5 °F 61.8 °F 30.16 in Calm   1.2 mph 85 % 0.00 in
22:02 66.5 °F 61.8 °F 30.16 in Calm     85 % 0.00 in
22:07 66.5 °F 62.2 °F 30.16 in Calm     86 % 0.00 in
22:12 66.4 °F 62.1 °F 30.16 in Calm     86 % 0.00 in
22:17 66.3 °F 62.0 °F 30.17 in Calm     86 % 0.00 in
22:22 66.3 °F 62.0 °F 30.17 in Calm     86 % 0.00 in
22:27 66.2 °F 61.6 °F 30.17 in Calm     85 % 0.00 in
22:32 66.2 °F 61.6 °F 30.17 in NNE 0.1 mph 1.2 mph 85 % 0.00 in
22:37 66.2 °F 61.6 °F 30.17 in NNE 0.3 mph 1.0 mph 85 % 0.00 in
22:42 66.1 °F 61.5 °F 30.17 in Calm     85 % 0.00 in
22:47 66.1 °F 61.8 °F 30.17 in Calm     86 % 0.00 in
22:52 66.1 °F 61.8 °F 30.17 in NE 0.1 mph 1.2 mph 86 % 0.00 in
22:57 66.0 °F 61.7 °F 30.17 in Calm   1.2 mph 86 % 0.00 in
23:02 65.9 °F 61.6 °F 30.17 in Calm     86 % 0.00 in
23:07 65.9 °F 61.6 °F 30.17 in Calm     86 % 0.00 in
23:13 65.9 °F 61.6 °F 30.17 in Calm     86 % 0.00 in
23:18 65.9 °F 61.6 °F 30.17 in ENE 0.1 mph 1.2 mph 86 % 0.00 in
23:23 65.8 °F 61.5 °F 30.18 in Calm     86 % 0.00 in
23:28 65.8 °F 61.8 °F 30.18 in Calm     87 % 0.00 in
23:33 65.8 °F 61.8 °F 30.18 in SSE 0.3 mph 2.3 mph 87 % 0.00 in
23:38 65.8 °F 61.8 °F 30.18 in Calm   2.3 mph 87 % 0.00 in
23:43 65.7 °F 61.7 °F 30.17 in SE 0.3 mph 2.3 mph 87 % 0.00 in
23:48 65.7 °F 61.7 °F 30.18 in SE 0.1 mph 1.2 mph 87 % 0.00 in
23:53 65.6 °F 61.6 °F 30.17 in ENE 0.2 mph 2.0 mph 87 % 0.00 in
23:58 65.6 °F 61.0 °F 30.17 in ENE 0.4 mph 1.2 mph 85 % 0.00 in
Crab Meadow Weather
Compliments of Weather Underground - 3 mb

Script developed by  Jim McMurry - jmcmurry@mwt.net Adapted for the template by  Wim van der Kuil - Leuven-Template.eu

Temperature: You can tell the temperature by counting the clicks a cricket makes in 15 seconds and adding 37!